Regional Weather Roundup
Issued by NWS Midland/Odessa, TX

Skip options and go directly to product.
Home | Oldest Version | Previous Version | Current Version | All | Graphics & Text | Save Text | Print | Product List | Glossary On

Skip product version selection by date and time.   
370
ASUS44 KMAF 020010
RWRMAF
MIDLAND AREA WEATHER ROUNDUP
NATIONAL WEATHER SERVICE MIDLAND TX
700 PM CDT FRI AUG 01 2014

...IN SOUTHWEST TEXAS AND SOUTHEAST NEW MEXICO...

CITY           SKY/WX    TMP DP  RH WIND       PRES   REMARKS
ALPINE         PTSUNNY   76  59  56 NE16      30.20S
ANDREWS        FAIR      82  53  36 E6        30.10F
ARTESIA        CLOUDY    72  64  78 SW3       30.15F
BIG SPRING     CLOUDY    87  49  27 E6        30.08F
CARLSBAD       CLOUDY    75  63  66 NW3       30.11F
DRYDEN           N/A     88  62  41 S6        30.00F
FORT STOCKTON  PTSUNNY   79  57  46 E9        30.09F
GUAD PASS      CLOUDY    65  60  84 NE28      30.22F
HOBBS          PTSUNNY   81  54  39 E9        30.14F
MARFA          PTSUNNY   72  63  73 NE14      30.19S
MIDLAND AIRPK  PTSUNNY   84  53  34 NE5       30.08F
MIDLAND INTL   PTSUNNY   83  56  39 E10       30.08F
ODESSA         MOSUNNY   83  54  36 E14       30.09F
PECOS          MOSUNNY   84  56  38 E6        30.06F
PRESIDIO       FAIR      85  62  45 S10       29.99F
SEMINOLE       CLOUDY    83  50  32 NE8       30.12S
SNYDER         MOSUNNY   85  53  33 NE12      30.06F
WINK           PTSUNNY   84  58  40 E6        30.06F
$$
...OTHER STATIONS IN TEXAS...

CITY           SKY/WX    TMP DP  RH WIND       PRES   REMARKS
ABILENE        MOSUNNY   89  55  31 NE6       30.03F
AMARILLO       SUNNY     82  50  32 E10       30.15S
AUSTIN         MOSUNNY   85  64  49 N14       29.95S
BROWNSVILLE    MOSUNNY   88  75  65 SE15G22   29.87F
CORPUS CHRISTI CLOUDY    88  74  63 SE14      29.88S
DALLAS FTW     MOSUNNY   82  64  54 NE13      30.01F
DEL RIO        MOSUNNY   94  64  37 W6        29.90F
EL PASO        PTSUNNY   72  64  76 VRB3      30.10F
HOUSTON INT    MOSUNNY   83  69  62 N13       29.92F
LUBBOCK        CLOUDY    80  50  34 N8        30.13S
SAN ANGELO     CLOUDY    86  55  34 E10       30.02S
SAN ANTONIO    MOSUNNY   93  63  36 N9        29.93F
WACO           CLOUDY    80  65  59 N10       30.00S
WICHITA FALLS  NOT AVBL
$$
...OTHER LOCATIONS IN NEW MEXICO...

CITY           SKY/WX    TMP DP  RH WIND       PRES   REMARKS
ALAMAGORDO     PTSUNNY   68  66  94 E7        30.14F
ALBUQUERQUE    PTSUNNY   80  55  42 E13       30.17F
CANNON AFB     SUNNY     77  54  43 VRB1      30.19S
CLOVIS         NOT AVBL
HOLLOMAN AFB   PTSUNNY   72  68  88 E7        30.12F
ROSWELL        CLOUDY    76  62  62 SW8       30.15S
RUIDOSO        CLOUDY    59  55  88 S13       30.34S
SANTA FE       PTSUNNY   71  54  54 SE16      30.26F
TRUTH OR CONSE MOSUNNY   80  55  42 E6        30.12F
TUCUMCARI      PTSUNNY   82  46  28 SE6       30.16S
$$

USA.gov is the U.S. government's official web portal to all federal, state and local government web resources and services.